www.pogodaiklimat.ru

Погода и климат >> Архив погоды >> Россия >> Архангельская область >> Моржовец Остров


ПОГОДА на Моржовец Острове

  • Прогноз погоды на Моржовец Острове
  • Монитор погоды на Моржовец Острове

АРХИВ ПОГОДЫ на Моржовец Острове

Время (UTC), дата Ветер
(напр.,м/с)
 
Видим.   Явления Облачность Т
(С)
Тd
(С)
f
(%)
Тe
(С)
Тes
(С)
Комфортность P
(гПа)
Po
(гПа)
Тmin
(С)
Tmax
(С)
R
(мм)
R24
(мм)
S
(см)
00 18.03 Ю 5 н/о н/о -1.6 -2.3 95 -8 -8 1011.1 1009.2
09 18.03 ЮВ 7 н/о н/о -0.8 -1.8 93 -8 -8 1011.6 1009.7
12 18.03 ЮВ 7 н/о н/о -0.2 -1.0 94 -8 -8 1010.9 1009.0
15 18.03 Ю 6 н/о н/о -0.1 -1.1 93 -7 -7 1010.3 1008.4
18 18.03 ЮВ 6 н/о н/о +0.2 -1.4 89 -6 -6 1008.6 1006.7
21 18.03 Ю 7 н/о н/о -0.4 -0.5 99 -8 -8 1007.6 1005.7
00 19.03 Ю 7 н/о н/о -0.7 -0.4 100 -8 -8 1005.5 1003.6
03 19.03 Ю 5 н/о н/о -0.7 -0.4 100 -7 -7 1004.0 1002.1
06 19.03 ЮЗ 4 н/о н/о -0.3 0.0 100 -6 -6 1003.2 1001.3
09 19.03 ЮЗ 5 н/о н/о -0.7 -0.6 100 -7 -7 1003.7 1001.8
12 19.03 ЮЗ 8 н/о н/о -0.3 -0.3 100 -8 -8 1005.3 1003.4
15 19.03 ЮЗ 9
{13}
н/о н/о -0.4 -0.4 100 -9 -9 1006.5 1004.6
18 19.03 ЮЗ 7 н/о н/о -0.3 -0.3 100 -8 -8 1006.5 1004.6
21 19.03 ЮЗ 6 н/о н/о -0.5 -0.5 100 -8 -8 1005.3 1003.4
03 20.03 З 7 н/о н/о -1.9 -1.9 100 -10 -10 1004.9 1003.0
06 20.03 СЗ 7 н/о н/о -1.7 -1.6 100 -10 -10 1005.7 1003.8
09 20.03 З 7 н/о н/о -1.9 -2.0 99 -10 -10 1006.9 1005.0
12 20.03 З 5 н/о н/о -1.7 -2.7 93 -8 -8 1007.6 1005.7
15 20.03 ЮЗ 5 н/о н/о -2.0 -2.7 95 -9 -9 1007.7 1005.8
18 20.03 З 6 н/о н/о -3.3 -4.4 92 -11 -11 1007.4 1005.5
21 20.03 З 7 н/о н/о -5.3 -6.1 94 -14 -14 1007.6 1005.7
00 21.03 З 4 н/о н/о -6.0 -7.1 92 -13 -13 1007.7 1005.8
03 21.03 З 5 н/о н/о -4.5 -6.3 87 -12 -12 1007.6 1005.6
06 21.03 ЮЗ 6 н/о н/о -3.7 -5.2 89 -11 -11 1007.4 1005.5
09 21.03 ЮЗ 4 н/о н/о -3.2 -4.5 91 -9 -9 1007.7 1005.8
12 21.03 Ю 4 н/о н/о -2.4 -4.6 85 -8 -8 1007.0 1005.1
15 21.03 Ю 5 н/о н/о -2.4 -4.6 85 -9 -9 1005.7 1003.8
18 21.03 ЮЗ 5 н/о н/о -2.0 -1.9 100 -9 -9 1004.5 1002.6
21 21.03 ЮЗ 6 н/о н/о -2.1 -2.2 99 -10 -10 1003.2 1001.3
00 22.03 ЮЗ 3 н/о н/о -2.1 -2.5 97 -7 -7 1002.7 1000.8
03 22.03 ЮЗ 4 н/о н/о -1.9 -2.5 96 -8 -8 1003.3 1001.4
06 22.03 З 3 н/о н/о -2.3 -2.6 98 -8 -8 1005.0 1003.1
09 22.03 СЗ 3 н/о н/о -1.9 -2.0 99 -7 -7 1007.7 1005.8
12 22.03 СЗ 3 н/о н/о -2.5 -3.5 93 -8 -8 1010.6 1008.7
15 22.03 З 4 н/о н/о -2.8 -3.9 92 -9 -9 1012.4 1010.5
18 22.03 З 4 н/о н/о -1.7 -2.3 96 -8 -8 1014.5 1012.6
21 22.03 СЗ 6 н/о н/о -3.9 -4.3 97 -12 -12 1016.1 1014.2
00 23.03 Ю 2 н/о н/о -6.5 -7.6 92 -11 -11 1016.9 1014.9
03 23.03 ЮЗ 6 н/о н/о -3.9 -4.7 94 -12 -12 1015.7 1013.8
06 23.03 ЮЗ 8 н/о н/о -3.2 -4.8 89 -12 -12 1013.9 1012.0
09 23.03 ЮЗ 10
{14}
н/о н/о -1.2 -2.9 88 -10 -10 1009.7 1007.8
12 23.03 Ю 12
{15}
н/о н/о -0.7 -2.6 87 -10 -10 1004.1 1002.2
15 23.03 Ю 15
{19}
н/о н/о -0.7 -1.5 94 -11 -11 998.8 997.0
18 23.03 Ю 13
{21}
н/о н/о -0.4 -0.7 98 -10 -10 995.2 993.3
21 23.03 ЮЗ 12
{19}
н/о н/о -0.6 -1.0 97 -10 -10 992.6 990.7
00 24.03 ЮЗ 12
{16}
н/о н/о -0.4 -0.5 99 -10 -10 990.7 988.8
03 24.03 ЮЗ 11
{15}
н/о н/о -0.3 -0.7 97 -9 -9 990.3 988.4
06 24.03 ЮЗ 12
{18}
н/о н/о -0.4 -1.2 94 -10 -10 990.7 988.8
09 24.03 ЮЗ 10
{17}
н/о н/о +0.3 -0.8 92 -8 -8 992.0 990.1
15 24.03 Ю 8 н/о н/о +0.4 -1.2 89 -7 -7 992.2 990.4

 

Местоположение метеостанции Моржовец Остров (Архангельская область, Россия): широта 66.72 долгота 42.48 высота над уровнем моря 16 м.

В архиве по умолчанию представлена погода на Моржовец Острове за последнюю неделю. Архивные данные за месяц целиком и за предыдущие месяцы, начиная с января 2011 года, Вы можете получить, выбрав интересующий диапазон дат из раскрывающегося списка и нажав кнопку "Ввод!".


*Определитесь, кто Вы:
робот инопланетянин человек

Внимание! Время в таблицах - всемирное. Для получения местного времени необходимо прибавить поправку, которая равна 3 ч.

Смотрите также архив погоды в соседних городах и на ближайших метеорологических станциях:

Погода в Абрамовском маяке (Архангельская область, Россия) (51 км)
Погода на Сосновец Острове (Мурманская область, Россия) (84 км)
Погода в Неси (Ненецкий АО, Россия) (98 км)
Погода в Мезене (Архангельская область, Россия) (122 км)
Погода в Каневке (Мурманская область, Россия) (131 км)
Погода в Пялице (Мурманская область, Россия) (144 км)
Погода в Шойне (Ненецкий АО, Россия) (148 км)
Погода в Кепино (Архангельская область, Россия) (152 км)
Погода в Зимнегорском Маяке (Архангельская область, Россия) (187 км)
Погода в Иоканьге (Мурманская область, Россия) (195 км)

Пояснения к столбцам:

Ветер - указаны скорость ветра в м/с - средняя за 10 мин, порывы в срок и между сроками (в фигурных скобках) и направление, откуда дует ветер: С - северный, СВ - северо-восточный, В - восточный, ЮВ - юго-восточный, Ю - южный, ЮЗ - юго-западный, З - западный, СЗ - северо-западный.
Видимость - горизонтальная дальность видимости в метрах или километрах. При видимости от 1 до 10 км при отсутствии осадков обычно наблюдается дымка, при ухудшении видимости до 1 км и менее - туман. В сухую погоду видимость может ухудшаться дымом, пылью или мглою.
Явления - указаны атмосферные явления, наблюдавшиеся в срок или в последний час перед сроком; фигурными скобками обозначены явления, наблюдавшиеся между сроками (за 1-3 часа до срока); квадратными скобками обозначены град или гололедные отложения с указанием их диаметра в мм.
Облачность - указаны через наклонную черту общая и нижняя облачность в баллах и высота нижней границы облаков в метрах; квадратными скобками обозначены формы облаков: Ci - перистые, Cs - перисто-слоистые, Cc - перисто-кучевые, Ac - высококучевые, As - высокослоистые, Sc - слоисто-кучевые, Ns - слоисто-дождевые, Cu - кучевые, Cb - кучево-дождевые. Подробнее классификацию облаков см. в Атласе облаков (PDF).
T - Температура воздуха - температура, измеренная на высоте 2 м над землей.
Td - Температура точки росы - температура, при понижении до которой содержащийся в воздухе водяной пар достигнет насыщения.
f - Относительная влажность воздуха - влажноcть воздуха, измеренная на высоте 2 м над землей.
Te - Эффективная температура - температура, которую ощущает одетый по сезону человек в тени. Характеристика душности погоды. При расчете учитывается влияние влажности воздуха и скорости ветра на теплоощущения человека.
Tes - Эффективная температура на солнце - температура, которую ощущает человек, с поправкой на солнечный нагрев. Характеристика знойности погоды. Зависит от высоты солнца над горизонтом, облачности и скорости ветра. Ночью, в пасмурную погоду, а также при ветре 12 м/с и более поправка равна нулю.
P - Атмосферное давление - приведенное к уровню моря атмосферное давление.
Po - Атмосферное давление - измеренное на уровне метеостанции атмосферное давление.
Tmin - Минимальная температура - минимум температуры воздуха на высоте 2 м над землей.
Tmax - Максимальная температура - максимум температуры воздуха на высоте 2 м над землей.
R - Количество осадков - Количество выпавших осадков за период времени, мм. При наведении курсора мыши на число - период времени, за который выпало указанное количество осадков.
R24 - Количество осадков - Количество выпавших осадков за 24 часа, мм.
S - Снежный покров - Высота снежного покрова, см. При наведении курсора мыши на число - состояние снежного покрова и степень покрытия местности в баллах.